TimeMDT,TemperatureF,Dew PointF,Humidity,Sea Level PressureIn,VisibilityMPH,Wind Direction,Wind SpeedMPH,Gust SpeedMPH,PrecipitationIn,Events,Conditions,WindDirDegrees,DateUTC
12:15 AM,60.8,42.8,52,30.50,10.0,NNW,10.4,-,N/A,,Clear,330,2013-06-29 06:15:00
12:35 AM,57.2,42.8,59,30.50,10.0,North,8.1,-,N/A,,Clear,10,2013-06-29 06:35:00
12:55 AM,57.2,42.8,59,30.50,10.0,North,9.2,-,N/A,,Clear,10,2013-06-29 06:55:00
1:15 AM,55.4,41.0,58,30.50,10.0,North,9.2,-,N/A,,Clear,350,2013-06-29 07:15:00
1:35 AM,55.4,41.0,58,30.50,10.0,North,5.8,-,N/A,,Clear,10,2013-06-29 07:35:00
1:55 AM,55.4,42.8,63,30.49,10.0,NNE,3.5,-,N/A,,Clear,20,2013-06-29 07:55:00
2:15 AM,55.4,41.0,58,30.50,10.0,NE,4.6,-,N/A,,Clear,40,2013-06-29 08:15:00
2:35 AM,55.4,42.8,63,30.49,10.0,Calm,Calm,-,N/A,,Clear,0,2013-06-29 08:35:00
2:55 AM,53.6,41.0,62,30.49,10.0,Calm,Calm,-,N/A,,Clear,0,2013-06-29 08:55:00
3:15 AM,55.4,41.0,58,30.50,10.0,Calm,Calm,-,N/A,,Clear,0,2013-06-29 09:15:00
3:35 AM,53.6,41.0,62,30.49,10.0,Calm,Calm,-,N/A,,Clear,0,2013-06-29 09:35:00
3:55 AM,51.8,42.8,71,30.50,10.0,Calm,Calm,-,N/A,,Clear,0,2013-06-29 09:55:00
4:15 AM,53.6,41.0,62,30.50,10.0,Calm,Calm,-,N/A,,Clear,0,2013-06-29 10:15:00
4:35 AM,51.8,42.8,71,30.50,10.0,Calm,Calm,-,N/A,,Clear,0,2013-06-29 10:35:00
4:55 AM,53.6,42.8,67,30.50,10.0,North,6.9,-,N/A,,Clear,350,2013-06-29 10:55:00
5:15 AM,53.6,41.0,62,30.50,10.0,Calm,Calm,-,N/A,,Clear,0,2013-06-29 11:15:00
5:35 AM,51.8,41.0,67,30.50,10.0,ENE,5.8,-,N/A,,Clear,70,2013-06-29 11:35:00
5:55 AM,53.6,41.0,62,30.51,10.0,Calm,Calm,-,N/A,,Clear,0,2013-06-29 11:55:00
6:15 AM,53.6,42.8,67,30.51,10.0,NNE,3.5,-,N/A,,Clear,20,2013-06-29 12:15:00
6:35 AM,51.8,42.8,71,30.52,10.0,NNE,4.6,-,N/A,,Clear,20,2013-06-29 12:35:00
6:55 AM,51.8,42.8,71,30.51,10.0,Calm,Calm,-,N/A,,Scattered Clouds,0,2013-06-29 12:55:00
7:15 AM,51.8,42.8,71,30.50,10.0,WSW,4.6,-,N/A,,Scattered Clouds,240,2013-06-29 13:15:00
7:35 AM,51.8,42.8,71,30.51,10.0,NW,5.8,-,N/A,,Clear,310,2013-06-29 13:35:00
12:55 PM,78.8,39.2,24,30.38,10.0,Calm,Calm,-,N/A,,Clear,0,2013-06-29 18:55:00
1:15 PM,80.6,39.2,23,30.37,10.0,WSW,4.6,-,N/A,,Clear,250,2013-06-29 19:15:00
1:35 PM,80.6,37.4,21,30.34,10.0,SW,15.0,19.6,N/A,,Mostly Cloudy,220,2013-06-29 19:35:00
1:55 PM,80.6,35.6,20,30.35,10.0,WSW,5.8,-,N/A,,Mostly Cloudy,250,2013-06-29 19:55:00
2:15 PM,80.6,35.6,20,30.33,10.0,NNW,4.6,-,N/A,,Mostly Cloudy,330,2013-06-29 20:15:00
2:35 PM,82.4,35.6,19,30.33,10.0,North,8.1,-,N/A,,Overcast,350,2013-06-29 20:35:00
2:55 PM,82.4,37.4,20,30.32,10.0,North,12.7,18.4,N/A,,Scattered Clouds,360,2013-06-29 20:55:00
3:15 PM,80.6,39.2,23,30.32,10.0,North,17.3,24.2,N/A,,Scattered Clouds,10,2013-06-29 21:15:00
3:35 PM,80.6,39.2,23,30.32,10.0,NNE,13.8,20.7,N/A,,Partly Cloudy,20,2013-06-29 21:35:00
3:55 PM,80.6,41.0,24,30.31,10.0,North,15.0,20.7,N/A,,Clear,10,2013-06-29 21:55:00
4:15 PM,82.4,41.0,23,30.31,10.0,NNE,15.0,19.6,N/A,,Clear,30,2013-06-29 22:15:00
4:35 PM,84.2,37.4,19,30.30,10.0,NNE,13.8,-,N/A,,Clear,20,2013-06-29 22:35:00
4:55 PM,80.6,37.4,21,30.30,10.0,ENE,13.8,19.6,N/A,,Clear,60,2013-06-29 22:55:00
5:15 PM,78.8,37.4,23,30.32,10.0,East,12.7,21.9,N/A,,Mostly Cloudy,80,2013-06-29 23:15:00
5:35 PM,75.2,39.2,27,30.34,10.0,East,23.0,32.2,N/A,Thunderstorm,Overcast,90,2013-06-29 23:35:00
5:55 PM,75.2,41.0,29,30.35,10.0,East,21.9,32.2,N/A,,Mostly Cloudy,90,2013-06-29 23:55:00
6:15 PM,73.4,41.0,31,30.35,10.0,ESE,26.5,34.5,N/A,,Clear,110,2013-06-30 00:15:00
6:35 PM,73.4,41.0,31,30.35,10.0,ESE,28.8,38.0,N/A,,Clear,120,2013-06-30 00:35:00
6:55 PM,71.6,41.0,33,30.36,10.0,ESE,24.2,29.9,N/A,,Clear,120,2013-06-30 00:55:00
7:15 PM,69.8,42.8,38,30.39,10.0,ESE,16.1,19.6,N/A,,Scattered Clouds,120,2013-06-30 01:15:00
7:35 PM,69.8,44.6,40,30.40,10.0,East,10.4,19.6,N/A,,Scattered Clouds,100,2013-06-30 01:35:00
7:55 PM,69.8,42.8,38,30.42,10.0,ESE,11.5,-,N/A,,Partly Cloudy,120,2013-06-30 01:55:00
8:15 PM,66.2,44.6,46,30.42,10.0,SE,15.0,-,N/A,,Scattered Clouds,140,2013-06-30 02:15:00
8:35 PM,66.2,44.6,46,30.42,10.0,SE,11.5,-,N/A,,Partly Cloudy,130,2013-06-30 02:35:00
8:55 PM,66.2,42.8,43,30.42,10.0,Calm,Calm,-,N/A,,Clear,0,2013-06-30 02:55:00
9:15 PM,64.4,42.8,45,30.41,10.0,SSW,3.5,-,N/A,,Clear,210,2013-06-30 03:15:00
9:35 PM,64.4,42.8,45,30.42,10.0,East,4.6,-,N/A,,Partly Cloudy,100,2013-06-30 03:35:00
9:55 PM,64.4,42.8,45,30.42,10.0,East,5.8,-,N/A,,Clear,80,2013-06-30 03:55:00
10:15 PM,62.6,42.8,48,30.42,10.0,North,5.8,-,N/A,,Clear,350,2013-06-30 04:15:00
10:35 PM,60.8,42.8,52,30.43,10.0,NNW,4.6,-,N/A,,Clear,340,2013-06-30 04:35:00
10:55 PM,60.8,44.6,55,30.43,10.0,Calm,Calm,-,N/A,,Clear,0,2013-06-30 04:55:00
11:15 PM,57.2,42.8,59,30.43,10.0,NNE,4.6,-,N/A,,Clear,30,2013-06-30 05:15:00
11:35 PM,57.2,44.6,63,30.42,10.0,North,4.6,-,N/A,,Clear,360,2013-06-30 05:35:00
11:55 PM,57.2,44.6,63,30.43,10.0,NNE,3.5,-,N/A,,Clear,20,2013-06-30 05:55:00